sat.trackr.live / text

‹ back to catalog

STARLINK-5809

NORAD 55775 · 2023-028AL

PAYLOAD ACTIVE UNKNOWN

§ Identity

Operator
Country
US
Launch date
2023-03-03
Launch site
AFWTR
Launch vehicle
Mass (kg)
RCS (m²)

Purposes: comms

External: N2YO · Heavens-Above · Gunter

§ Orbital elements

Epoch: 2026-09-20T13:18:03.230784Z

Period
96.11 min
Inclination
69.9983°
Eccentricity
0.0002587
Mean motion
14.98330775 rev/d
Perigee alt
570.3 km
Apogee alt
573.9 km
Semi-major
6,950.2 km
B*
3.3844e-5
RAAN
93.0662°
Arg perigee
269.7479°
Mean anomaly
90.3384°
Rev number
19,572

§ Raw data

STARLINK-58091 55775U 23028AL  26263.55420406  .00000311  00000+0  33844-4 0  99992 55775  69.9983  93.0662 0002587 269.7479  90.3384 14.98330775195725

JSON: /api/v1/satellites/55775 · /tle

For live sub-satellite position, see the globe view (requires WebGL).

§ Visibility from observer

Set your observer location to see the next 7 days of passes ≥ 10°. The values pass through the URL so the page stays shareable.

No JS? Fill the form by hand. The geolocation button needs JavaScript.